Pella, IA

7:07 AM CDT on July 23, 2017 (GMT -0500)
Pella Municipal

Weather History for KPEA - November, 2012

Change the Weather History Date:

Wednesday, November 28, 2012

  Actual Average (KOXV) Record (KOXV)
Temperature  
Mean Temperature 34 °F -  
Max Temperature 48 °F 37 °F 66 °F (2006)
Min Temperature 20 °F 21 °F -4 °F (1976)
Degree Days  
Heating Degree Days 31    
Moisture  
Dew Point 22 °F    
Average Humidity 64    
Maximum Humidity 87    
Minimum Humidity 36    
Precipitation  
Precipitation 0.00 in - - ()
Sea Level Pressure  
Sea Level Pressure 30.30 in    
Wind  
Wind Speed 5 mph (SSW)    
Max Wind Speed 9 mph    
Max Gust Speed -    
Visibility 10 miles    
Events      
Averages and records for this station are not official NWS values.
T = Trace of Precipitation, MM = Missing Value Source: NWS Daily Summary

Daily Weather History Graph

Daily Weather History Graph

Search for Another Location

Airport or City:

Trip Planner

Search our weather history database for the weather conditions in past years. The results will help you decide how hot, cold, wet, or windy it might be!

Date:

Astronomy

Nov. 28, 2012 Rise Set
Actual Time 7:15 AM CST 4:43 PM CST
Civil Twilight 6:45 AM CST 5:14 PM CST
Nautical Twilight 6:10 AM CST 5:48 PM CST
Astronomical Twilight 5:37 AM CST 6:21 PM CST
Moon 4:59 PM CST (11/28) 7:13 AM CST (11/28)
Length of Visible Light 10h 29m
Length of Day
9h 28m
Full, 100% of the Moon is Illuminated
Nov 28
Full
Dec 6
Last Quarter
Dec 13
New
Dec 19
First Quarter
Dec 28
Full

Hourly Weather History & Observations

Time (CST) Temp. Windchill Dew Point Humidity Pressure Visibility Wind Dir Wind Speed Gust Speed Precip Events Conditions
12:15 AM 28.2 °F 21.0 °F 17.4 °F 64% 30.29 in 10.0 mi West 6.9 mph - N/A   Clear
12:35 AM 28.2 °F 20.2 °F 17.4 °F 64% 30.29 in 10.0 mi West 8.1 mph - N/A   Clear
12:55 AM 27.5 °F 19.3 °F 17.2 °F 65% 30.29 in 10.0 mi West 8.1 mph - N/A   Clear
1:15 AM 26.8 °F 19.3 °F 17.1 °F 67% 30.29 in 10.0 mi West 6.9 mph - N/A   Clear
1:35 AM 26.2 °F 18.6 °F 17.6 °F 70% 30.30 in 10.0 mi West 6.9 mph - N/A   Clear
1:55 AM 26.6 °F 21.2 °F 18.7 °F 72% 30.31 in 10.0 mi West 4.6 mph - N/A   Clear
2:15 AM 25.7 °F 18.0 °F 18.5 °F 74% 30.31 in 10.0 mi WNW 6.9 mph - N/A   Clear
2:35 AM 26.2 °F 18.6 °F 18.5 °F 73% 30.32 in 10.0 mi WNW 6.9 mph - N/A   Clear
2:55 AM 25.5 °F 17.8 °F 18.5 °F 75% 30.32 in 10.0 mi WNW 6.9 mph - N/A   Clear
3:15 AM 24.6 °F 16.7 °F 18.0 °F 76% 30.33 in 10.0 mi WNW 6.9 mph - N/A   Clear
3:35 AM 23.9 °F 16.8 °F 17.4 °F 76% 30.33 in 10.0 mi WNW 5.8 mph - N/A   Clear
3:55 AM 22.8 °F 14.5 °F 16.7 °F 77% 30.34 in 10.0 mi WNW 6.9 mph - N/A   Clear
4:15 AM 22.6 °F 16.5 °F 17.1 °F 79% 30.34 in 10.0 mi WNW 4.6 mph - N/A   Clear
4:35 AM 23.7 °F 19.3 °F 17.8 °F 78% 30.34 in 10.0 mi WNW 3.5 mph - N/A   Clear
4:55 AM 22.5 °F 17.8 °F 17.2 °F 80% 30.35 in 10.0 mi WNW 3.5 mph - N/A   Clear
5:15 AM 21.6 °F 13.0 °F 16.7 °F 82% 30.35 in 10.0 mi WNW 6.9 mph - N/A   Clear
5:35 AM 20.5 °F 15.6 °F 16.0 °F 83% 30.35 in 10.0 mi NW 3.5 mph - N/A   Clear
5:55 AM 21.0 °F 14.6 °F 16.9 °F 84% 30.36 in 10.0 mi WNW 4.6 mph - N/A   Clear
6:15 AM 20.7 °F 14.2 °F 16.9 °F 85% 30.37 in 10.0 mi West 4.6 mph - N/A   Clear
6:35 AM 21.0 °F 14.6 °F 16.7 °F 83% 30.37 in 10.0 mi West 4.6 mph - N/A   Clear
6:55 AM 20.8 °F 13.2 °F 17.4 °F 87% 30.38 in 10.0 mi West 5.8 mph - N/A   Clear
7:15 AM 21.0 °F 14.6 °F 17.6 °F 87% 30.38 in 10.0 mi WNW 4.6 mph - N/A   Clear
7:35 AM 21.4 °F 16.6 °F 17.8 °F 86% 30.39 in 7.0 mi NW 3.5 mph - N/A   Clear
7:55 AM 23.0 °F 18.4 °F 18.9 °F 84% 30.39 in 10.0 mi NNW 3.5 mph - N/A   Clear
8:15 AM 25.2 °F - 20.5 °F 82% 30.39 in 7.0 mi Calm Calm - N/A   Clear
8:35 AM 27.1 °F 20.7 °F 21.2 °F 78% 30.41 in 10.0 mi West 5.8 mph - N/A   Clear
8:55 AM 28.6 °F 23.5 °F 21.9 °F 76% 30.42 in 10.0 mi West 4.6 mph - N/A   Clear
9:15 AM 30.2 °F - 22.6 °F 73% 30.42 in 10.0 mi Calm Calm - N/A   Clear
9:35 AM 31.3 °F - 23.4 °F 72% 30.42 in 10.0 mi Calm Calm - N/A   Clear
9:55 AM 33.4 °F - 23.9 °F 68% 30.42 in 10.0 mi Calm Calm - N/A   Clear
10:15 AM 34.7 °F - 24.4 °F 66% 30.42 in 10.0 mi Calm Calm - N/A   Clear
10:35 AM 36.3 °F - 25.2 °F 64% 30.41 in 10.0 mi Calm Calm - N/A   Clear
10:55 AM 37.8 °F - 25.2 °F 60% 30.41 in 10.0 mi Calm Calm - N/A   Clear
11:15 AM 40.1 °F 38.0 °F 25.7 °F 56% 30.41 in 10.0 mi SSE 3.5 mph - N/A   Clear
11:35 AM 41.0 °F 39.0 °F 27.1 °F 58% 30.39 in 10.0 mi South 3.5 mph - N/A   Clear
11:55 AM 41.0 °F 39.0 °F 25.7 °F 55% 30.38 in 10.0 mi SE 3.5 mph - N/A   Clear
12:15 PM 41.2 °F 39.2 °F 25.2 °F 53% 30.36 in 10.0 mi South 3.5 mph - N/A   Clear
12:35 PM 42.8 °F 39.3 °F 24.6 °F 49% 30.35 in 10.0 mi South 5.8 mph - N/A   Clear
12:55 PM 43.0 °F 41.3 °F 23.9 °F 47% 30.34 in 10.0 mi ESE 3.5 mph - N/A   Scattered Clouds
1:15 PM 45.5 °F - 23.4 °F 42% 30.33 in 10.0 mi Calm Calm - N/A   Clear
1:35 PM 46.4 °F 44.3 °F 23.9 °F 41% 30.33 in 10.0 mi SW 4.6 mph - N/A   Clear
1:55 PM 46.6 °F - 23.7 °F 41% 30.32 in 10.0 mi SSE 5.8 mph - N/A   Clear
2:15 PM 47.5 °F - 23.9 °F 40% 30.30 in 10.0 mi South 6.9 mph - N/A   Clear
2:35 PM 48.4 °F - 23.7 °F 38% 30.29 in 10.0 mi SSE 6.9 mph - N/A   Clear
2:55 PM 48.4 °F - 22.6 °F 36% 30.29 in 10.0 mi South 9.2 mph - N/A   Clear
3:15 PM 48.2 °F - 23.4 °F 38% 30.27 in 10.0 mi South 4.6 mph - N/A   Clear
3:35 PM 48.0 °F - 23.0 °F 37% 30.27 in 10.0 mi South 6.9 mph - N/A   Clear
3:55 PM 47.1 °F - 21.7 °F 37% 30.26 in 10.0 mi South 8.1 mph - N/A   Clear
4:15 PM 45.3 °F 42.3 °F 22.1 °F 40% 30.26 in 10.0 mi South 5.8 mph - N/A   Clear
4:35 PM 42.3 °F 39.4 °F 21.7 °F 44% 30.26 in 10.0 mi SSE 4.6 mph - N/A   Clear
4:55 PM 41.2 °F 37.3 °F 21.6 °F 46% 30.25 in 7.0 mi SSE 5.8 mph - N/A   Clear
5:15 PM 39.7 °F 34.9 °F 21.6 °F 48% 30.25 in 10.0 mi South 6.9 mph - N/A   Clear
5:35 PM 39.2 °F 35.0 °F 21.9 °F 50% 30.25 in 10.0 mi SSE 5.8 mph - N/A   Clear
5:55 PM 38.7 °F 34.3 °F 22.1 °F 51% 30.25 in 10.0 mi SSE 5.8 mph - N/A   Clear
6:15 PM 37.9 °F 33.5 °F 22.3 °F 53% 30.24 in 10.0 mi SSE 5.8 mph - N/A   Clear
6:35 PM 37.6 °F 32.3 °F 22.8 °F 55% 30.24 in 7.0 mi SSE 6.9 mph - N/A   Clear
6:55 PM 36.7 °F 31.2 °F 22.8 °F 57% 30.23 in 10.0 mi SSE 6.9 mph - N/A   Clear
7:15 PM 36.5 °F 31.8 °F 23.2 °F 59% 30.23 in 10.0 mi SSE 5.8 mph - N/A   Clear
7:35 PM 36.0 °F 30.3 °F 23.4 °F 60% 30.23 in 10.0 mi South 6.9 mph - N/A   Clear
7:55 PM 35.4 °F 29.7 °F 23.5 °F 62% 30.23 in 10.0 mi SSE 6.9 mph - N/A   Clear
8:15 PM 33.8 °F 28.6 °F 23.4 °F 66% 30.22 in 7.0 mi SSE 5.8 mph - N/A   Clear
8:35 PM 34.0 °F 28.0 °F 23.9 °F 67% 30.20 in 10.0 mi SSE 6.9 mph - N/A   Clear
8:55 PM 34.0 °F 29.8 °F 23.9 °F 67% 30.20 in 10.0 mi SSE 4.6 mph - N/A   Clear
9:15 PM 33.1 °F 28.7 °F 23.9 °F 69% 30.20 in 10.0 mi SSE 4.6 mph - N/A   Clear
9:35 PM 32.5 °F 27.1 °F 23.9 °F 70% 30.19 in 10.0 mi SSE 5.8 mph - N/A   Clear
9:55 PM 32.4 °F 26.9 °F 24.1 °F 72% 30.19 in 10.0 mi SSE 5.8 mph - N/A   Clear
10:15 PM 32.4 °F 27.9 °F 24.4 °F 73% 30.19 in 10.0 mi SE 4.6 mph - N/A   Clear
10:35 PM 32.0 °F 28.7 °F 24.3 °F 73% 30.19 in 10.0 mi SE 3.5 mph - N/A   Clear
10:55 PM 32.0 °F - 24.3 °F 73% 30.19 in 10.0 mi Calm Calm - N/A   Clear
11:15 PM 31.6 °F 28.3 °F 24.4 °F 75% 30.18 in 10.0 mi SE 3.5 mph - N/A   Clear
11:35 PM 31.8 °F 27.3 °F 25.0 °F 76% 30.18 in 10.0 mi SE 4.6 mph - N/A   Clear
11:55 PM 31.6 °F 28.3 °F 25.2 °F 77% 30.19 in 10.0 mi SE 3.5 mph - N/A   Clear